,,,PA_Meas_PMT16A,,PR_Meas_QMR101_102,,RH_Meas_QMH101,,SR_Meas_QMS101,,TA_Meas_QMH101,,GenWind,,GenWind,
date,time,status,PA,status,PR,status,RH,status,SR,status,TA,status,DirAvg,status,SpdAvg,
2010-05-25, 00:00:05,VALID,1009.3,VALID,0,VALID,102.238,VALID,0,VALID,25.0193,VALID,279,VALID,0,
2010-05-25, 00:01:05,VALID,1009.28,VALID,0,VALID,102.223,VALID,0,VALID,25.0583,VALID,279,VALID,0,
2010-05-25, 00:02:05,VALID,1009.29,VALID,0,VALID,102.177,VALID,0,VALID,25.0778,VALID,279,VALID,0,
2010-05-25, 00:03:05,VALID,1009.3,VALID,0,VALID,102.147,VALID,0,VALID,25.0369,VALID,279,VALID,0,
2010-05-25, 00:04:05,VALID,1009.3,VALID,0,VALID,102.109,VALID,0,VALID,25.0583,VALID,279,VALID,0,
2010-05-25, 00:05:05,VALID,1009.28,VALID,0,VALID,102.04,VALID,0,VALID,25.0583,VALID,279,VALID,0,
2010-05-25, 00:06:05,VALID,1009.28,VALID,0,VALID,102.01,VALID,0,VALID,25.0583,VALID,279,VALID,0,
2010-05-25, 00:07:05,VALID,1009.3,VALID,0,VALID,102.078,VALID,0,VALID,25.0778,VALID,279,VALID,0,
2010-05-25, 00:08:05,VALID,1009.29,VALID,0,VALID,102.086,VALID,0,VALID,25.0583,VALID,279,VALID,0,
2010-05-25, 00:09:05,VALID,1009.29,VALID,0,VALID,102.04,VALID,0,VALID,25.0583,VALID,279,VALID,0,
2010-05-25, 00:10:05,VALID,1009.31,VALID,0,VALID,102.01,VALID,0,VALID,25.0174,VALID,279,VALID,0,
2010-05-25, 00:11:05,VALID,1009.31,VALID,0,VALID,102.002,VALID,0,VALID,25.0778,VALID,279,VALID,0,
2010-05-25, 00:12:05,VALID,1009.31,VALID,0,VALID,102.04,VALID,0,VALID,25.0973,VALID,279,VALID,0,
2010-05-25, 00:13:05,VALID,1009.33,VALID,0,VALID,102.025,VALID,0,VALID,25.0778,VALID,97,VALID,0,
2010-05-25, 00:14:05,VALID,1009.3,VALID,0,VALID,101.979,VALID,0,VALID,25.0973,VALID,97,VALID,0,
2010-05-25, 00:15:05,VALID,1009.35,VALID,0,VALID,101.949,VALID,0,VALID,25.0973,VALID,112,VALID,0,
2010-05-25, 00:16:05,VALID,1009.31,VALID,0,VALID,101.895,VALID,0,VALID,25.0954,VALID,113,VALID,0,
2010-05-25, 00:17:05,VALID,1009.33,VALID,0,VALID,101.888,VALID,0,VALID,25.1167,VALID,124,VALID,0,
2010-05-25, 00:18:05,VALID,1009.26,VALID,0,VALID,101.796,VALID,0,VALID,25.1362,VALID,129,VALID,0,
2010-05-25, 00:19:05,VALID,1009.29,VALID,0,VALID,101.682,VALID,0,VALID,25.1362,VALID,121,VALID,0,
2010-05-25, 00:20:05,VALID,1009.29,VALID,0,VALID,101.575,VALID,0,VALID,25.1343,VALID,118,VALID,0,
2010-05-25, 00:21:05,VALID,1009.3,VALID,0,VALID,101.384,VALID,0,VALID,25.1557,VALID,118,VALID,0,
2010-05-25, 00:22:05,VALID,1009.3,VALID,0,VALID,101.377,VALID,0.105969,VALID,25.1538,VALID,118,VALID,0,
2010-05-25, 00:23:05,VALID,1009.28,VALID,0,VALID,101.423,VALID,0,VALID,25.1538,VALID,118,VALID,0,
2010-05-25, 00:24:05,VALID,1009.3,VALID,0,VALID,101.293,VALID,0,VALID,25.1752,VALID,118,VALID,0,
2010-05-25, 00:25:05,VALID,1009.29,VALID,0,VALID,101.301,VALID,0,VALID,25.1733,VALID,118,VALID,0,
2010-05-25, 00:26:05,VALID,1009.31,VALID,0,VALID,101.384,VALID,0,VALID,25.2142,VALID,118,VALID,0,
2010-05-25, 00:27:05,VALID,1009.3,VALID,0,VALID,101.308,VALID,0,VALID,25.1947,VALID,111,VALID,0,
2010-05-25, 00:28:05,VALID,1009.28,VALID,0,VALID,101.209,VALID,0,VALID,25.1538,VALID,69,VALID,0,
2010-05-25, 00:29:05,VALID,1009.26,VALID,0,VALID,101.194,VALID,0,VALID,25.1538,VALID,56,VALID,0,
2010-05-25, 00:30:05,VALID,1009.27,VALID,0,VALID,101.224,VALID,0,VALID,25.1343,VALID,56,VALID,0,
2010-05-25, 00:31:05,VALID,1009.25,VALID,0,VALID,101.301,VALID,0,VALID,25.1148,VALID,56,VALID,0,
2010-05-25, 00:32:05,VALID,1009.2,VALID,0,VALID,101.362,VALID,0,VALID,25.1148,VALID,56,VALID,0,
2010-05-25, 00:33:05,VALID,1009.16,VALID,0,VALID,101.438,VALID,0,VALID,25.1362,VALID,56,VALID,0,
2010-05-25, 00:34:05,VALID,1009.15,VALID,0,VALID,101.552,VALID,0,VALID,25.1148,VALID,56,VALID,0,
2010-05-25, 00:35:05,VALID,1009.12,VALID,0,VALID,101.575,VALID,0,VALID,25.1362,VALID,142,VALID,0,
2010-05-25, 00:36:05,VALID,1009.1,VALID,0,VALID,101.545,VALID,0,VALID,25.1167,VALID,147,VALID,0,
2010-05-25, 00:37:05,VALID,1009.08,VALID,0,VALID,101.529,VALID,0,VALID,25.1167,VALID,147,VALID,0,
2010-05-25, 00:38:05,VALID,1009.06,VALID,0,VALID,101.529,VALID,0,VALID,25.1167,VALID,147,VALID,0,
2010-05-25, 00:39:05,VALID,1009.06,VALID,0,VALID,101.506,VALID,0,VALID,25.1167,VALID,147,VALID,0,
2010-05-25, 00:40:05,VALID,1009.04,VALID,0,VALID,101.537,VALID,0,VALID,25.0973,VALID,147,VALID,0,
2010-05-25, 00:41:05,VALID,1009.06,VALID,0,VALID,101.583,VALID,0,VALID,25.0973,VALID,147,VALID,0,
2010-05-25, 00:42:05,VALID,1009.03,VALID,0,VALID,101.674,VALID,0,VALID,25.0973,VALID,147,VALID,0,
2010-05-25, 00:43:05,VALID,1009.01,VALID,0,VALID,101.682,VALID,0,VALID,25.0973,VALID,147,VALID,0,
2010-05-25, 00:44:05,VALID,1009,VALID,0,VALID,101.697,VALID,0,VALID,25.0973,VALID,147,VALID,0,
2010-05-25, 00:45:05,VALID,1009,VALID,0,VALID,101.659,VALID,0,VALID,25.0973,VALID,147,VALID,0,
2010-05-25, 00:46:05,VALID,1009.01,VALID,0,VALID,101.636,VALID,0,VALID,25.0992,VALID,147,VALID,0,
2010-05-25, 00:47:05,VALID,1009.02,VALID,0,VALID,101.59,VALID,0,VALID,25.0564,VALID,147,VALID,0,
2010-05-25, 00:48:05,VALID,1009.04,VALID,0,VALID,101.567,VALID,0,VALID,25.0778,VALID,147,VALID,0,
2010-05-25, 00:49:05,VALID,1009.06,VALID,0,VALID,101.499,VALID,0,VALID,25.0778,VALID,147,VALID,0,
2010-05-25, 00:50:05,VALID,1009.07,VALID,0,VALID,101.491,VALID,0,VALID,25.0564,VALID,147,VALID,0,
2010-05-25, 00:51:05,VALID,1009.04,VALID,0,VALID,101.491,VALID,0,VALID,25.0759,VALID,147,VALID,0,
2010-05-25, 00:52:05,VALID,1009.04,VALID,0,VALID,101.476,VALID,0,VALID,25.0973,VALID,147,VALID,0,
2010-05-25, 00:53:05,VALID,1009.03,VALID,0,VALID,101.545,VALID,0,VALID,25.0973,VALID,146,VALID,0,
2010-05-25, 00:54:05,VALID,1009,VALID,0,VALID,101.567,VALID,0,VALID,25.0973,VALID,146,VALID,0,
2010-05-25, 00:55:05,VALID,1008.95,VALID,0,VALID,101.674,VALID,0,VALID,25.1167,VALID,38,VALID,0,
2010-05-25, 00:56:05,VALID,1008.92,VALID,0,VALID,101.689,VALID,0,VALID,25.0973,VALID,10,VALID,0,
2010-05-25, 00:57:05,VALID,1008.95,VALID,0,VALID,101.606,VALID,0.105969,VALID,25.0369,VALID,10,VALID,0,
2010-05-25, 00:58:05,VALID,1008.91,VALID,0,VALID,101.567,VALID,0,VALID,25.0174,VALID,10,VALID,0,
2010-05-25, 00:59:05,VALID,1008.93,VALID,0,VALID,101.667,VALID,0,VALID,25.0369,VALID,10,VALID,0,
2010-05-25, 01:00:05,VALID,1008.95,VALID,0,VALID,101.697,VALID,0,VALID,25.0388,VALID,10,VALID,0,
2010-05-25, 01:01:05,VALID,1008.93,VALID,0,VALID,101.72,VALID,0,VALID,24.9979,VALID,10,VALID,0,
2010-05-25, 01:02:05,VALID,1008.93,VALID,0,VALID,101.72,VALID,0,VALID,24.9589,VALID,10,VALID,0,
2010-05-25, 01:03:05,VALID,1008.93,VALID,0,VALID,101.758,VALID,0,VALID,24.9608,VALID,46,VALID,0,
2010-05-25, 01:04:05,VALID,1008.93,VALID,0,VALID,101.827,VALID,0,VALID,24.9394,VALID,46,VALID,0,
2010-05-25, 01:05:05,VALID,1008.92,VALID,0,VALID,101.941,VALID,0,VALID,24.9589,VALID,46,VALID,0,
2010-05-25, 01:06:05,VALID,1008.9,VALID,0,VALID,101.994,VALID,0,VALID,24.9394,VALID,46,VALID,0,
2010-05-25, 01:07:05,VALID,1008.89,VALID,0,VALID,102.063,VALID,0,VALID,24.9608,VALID,46,VALID,0,
2010-05-25, 01:08:05,VALID,1008.85,VALID,0,VALID,102.124,VALID,0.105969,VALID,24.9803,VALID,46,VALID,0,
2010-05-25, 01:09:05,VALID,1008.85,VALID,0,VALID,102.124,VALID,0,VALID,24.9608,VALID,46,VALID,0,
2010-05-25, 01:10:05,VALID,1008.82,VALID,0,VALID,102.139,VALID,0,VALID,24.9394,VALID,46,VALID,0,
2010-05-25, 01:11:05,VALID,1008.8,VALID,0,VALID,102.116,VALID,0,VALID,24.9199,VALID,46,VALID,0,
2010-05-25, 01:12:05,VALID,1008.81,VALID,0,VALID,102.101,VALID,0,VALID,24.9199,VALID,46,VALID,0,
2010-05-25, 01:13:04,VALID,1008.8,VALID,0,VALID,102.071,VALID,0,VALID,24.9413,VALID,46,VALID,0,
2010-05-25, 01:14:04,VALID,1008.78,VALID,0,VALID,102.109,VALID,0,VALID,24.9803,VALID,46,VALID,0,
2010-05-25, 01:15:04,VALID,1008.74,VALID,0,VALID,102.139,VALID,0,VALID,24.9608,VALID,46,VALID,0,
2010-05-25, 01:16:04,VALID,1008.76,VALID,0,VALID,102.147,VALID,0,VALID,24.9608,VALID,46,VALID,0,
2010-05-25, 01:17:04,VALID,1008.75,VALID,0,VALID,102.139,VALID,0,VALID,24.9394,VALID,46,VALID,0,
2010-05-25, 01:18:04,VALID,1008.78,VALID,0,VALID,102.185,VALID,0,VALID,24.9394,VALID,46,VALID,0,
2010-05-25, 01:19:04,VALID,1008.77,VALID,0,VALID,102.2,VALID,0.105969,VALID,24.9394,VALID,46,VALID,0,
2010-05-25, 01:20:04,VALID,1008.78,VALID,0,VALID,102.193,VALID,0,VALID,24.9199,VALID,46,VALID,0,
2010-05-25, 01:21:04,VALID,1008.77,VALID,0,VALID,102.147,VALID,0,VALID,24.9199,VALID,46,VALID,0,
2010-05-25, 01:22:04,VALID,1008.8,VALID,0,VALID,102.109,VALID,0,VALID,24.9218,VALID,46,VALID,0,
2010-05-25, 01:23:04,VALID,1008.79,VALID,0,VALID,102.086,VALID,0,VALID,24.9218,VALID,46,VALID,0,
2010-05-25, 01:24:04,VALID,1008.78,VALID,0,VALID,102.055,VALID,0,VALID,24.9218,VALID,46,VALID,0,
2010-05-25, 01:25:04,VALID,1008.75,VALID,0,VALID,102.017,VALID,0,VALID,24.9004,VALID,46,VALID,0,
2010-05-25, 01:26:04,VALID,1008.73,VALID,0,VALID,102.04,VALID,0,VALID,24.9413,VALID,46,VALID,0,
2010-05-25, 01:27:04,VALID,1008.72,VALID,0,VALID,102.017,VALID,0,VALID,24.9199,VALID,46,VALID,0,
2010-05-25, 01:28:04,VALID,1008.7,VALID,0,VALID,102.048,VALID,0,VALID,24.9394,VALID,46,VALID,0,
2010-05-25, 01:29:04,VALID,1008.69,VALID,0,VALID,102.116,VALID,0,VALID,24.9608,VALID,46,VALID,0,
2010-05-25, 01:30:04,VALID,1008.7,VALID,0,VALID,102.162,VALID,0.105969,VALID,24.9199,VALID,46,VALID,0,
2010-05-25, 01:31:04,VALID,1008.7,VALID,0,VALID,102.147,VALID,0,VALID,24.9413,VALID,46,VALID,0,
2010-05-25, 01:32:04,VALID,1008.71,VALID,0,VALID,102.17,VALID,0,VALID,24.8809,VALID,46,VALID,0,
2010-05-25, 01:33:04,VALID,1008.71,VALID,0,VALID,102.17,VALID,0,VALID,24.842,VALID,46,VALID,0,
2010-05-25, 01:34:04,VALID,1008.73,VALID,0,VALID,102.185,VALID,0,VALID,24.8438,VALID,46,VALID,0,
2010-05-25, 01:35:04,VALID,1008.72,VALID,0,VALID,102.208,VALID,0.105969,VALID,24.8633,VALID,46,VALID,0,
2010-05-25, 01:36:04,VALID,1008.73,VALID,0,VALID,102.254,VALID,0,VALID,24.8438,VALID,46,VALID,0,
2010-05-25, 01:37:04,VALID,1008.73,VALID,0,VALID,102.284,VALID,0,VALID,24.8438,VALID,46,VALID,0,
2010-05-25, 01:38:04,VALID,1008.74,VALID,0,VALID,102.292,VALID,0,VALID,24.8633,VALID,46,VALID,0,
2010-05-25, 01:39:04,VALID,1008.71,VALID,0,VALID,102.277,VALID,0.105969,VALID,24.842,VALID,46,VALID,0,
2010-05-25, 01:40:04,VALID,1008.73,VALID,0,VALID,102.292,VALID,0,VALID,24.8633,VALID,46,VALID,0,
2010-05-25, 01:41:04,VALID,1008.74,VALID,0,VALID,102.269,VALID,0.105969,VALID,24.842,VALID,46,VALID,0,
2010-05-25, 01:42:04,VALID,1008.72,VALID,0,VALID,102.269,VALID,0.105969,VALID,24.8615,VALID,46,VALID,0,
2010-05-25, 01:43:04,VALID,1008.73,VALID,0,VALID,102.261,VALID,0.105969,VALID,24.9023,VALID,46,VALID,0,
2010-05-25, 01:44:04,VALID,1008.73,VALID,0,VALID,102.261,VALID,0.105969,VALID,24.8809,VALID,46,VALID,0,
2010-05-25, 01:45:04,VALID,1008.71,VALID,0,VALID,102.231,VALID,0,VALID,24.9023,VALID,46,VALID,0,
2010-05-25, 01:46:04,VALID,1008.73,VALID,0,VALID,102.216,VALID,0,VALID,24.9218,VALID,46,VALID,0,
2010-05-25, 01:47:04,VALID,1008.72,VALID,0,VALID,102.216,VALID,0,VALID,24.9199,VALID,46,VALID,0,
2010-05-25, 01:48:04,VALID,1008.73,VALID,0,VALID,102.208,VALID,0,VALID,24.9199,VALID,46,VALID,0,
2010-05-25, 01:49:04,VALID,1008.71,VALID,0,VALID,102.246,VALID,0,VALID,24.9608,VALID,46,VALID,0,
2010-05-25, 01:50:04,VALID,1008.75,VALID,0,VALID,102.231,VALID,0.105969,VALID,24.9199,VALID,46,VALID,0,
2010-05-25, 01:51:04,VALID,1008.7,VALID,0,VALID,102.246,VALID,0,VALID,24.9218,VALID,46,VALID,0,
2010-05-25, 01:52:04,VALID,1008.71,VALID,0,VALID,102.261,VALID,0.105969,VALID,24.9004,VALID,46,VALID,0,
2010-05-25, 01:53:04,VALID,1008.69,VALID,0,VALID,102.284,VALID,0,VALID,24.9413,VALID,46,VALID,0,
2010-05-25, 01:54:04,VALID,1008.67,VALID,0,VALID,102.322,VALID,0,VALID,24.9004,VALID,46,VALID,0,
2010-05-25, 01:55:04,VALID,1008.67,VALID,0,VALID,102.345,VALID,0,VALID,24.9004,VALID,46,VALID,0,
2010-05-25, 01:56:04,VALID,1008.64,VALID,0,VALID,102.36,VALID,0,VALID,24.9218,VALID,46,VALID,0,
2010-05-25, 01:57:04,VALID,1008.65,VALID,0,VALID,102.345,VALID,0,VALID,24.8809,VALID,46,VALID,0,
2010-05-25, 01:58:04,VALID,1008.62,VALID,0,VALID,102.33,VALID,0.105969,VALID,24.8615,VALID,46,VALID,0,
2010-05-25, 01:59:04,VALID,1008.56,VALID,0,VALID,102.299,VALID,0.105969,VALID,24.8615,VALID,46,VALID,0,
2010-05-25, 02:00:04,VALID,1008.57,VALID,0,VALID,102.277,VALID,0.105969,VALID,24.8615,VALID,46,VALID,0,
2010-05-25, 02:01:04,VALID,1008.56,VALID,0,VALID,102.277,VALID,0,VALID,24.8828,VALID,46,VALID,0,
2010-05-25, 02:02:04,VALID,1008.57,VALID,0,VALID,102.261,VALID,0,VALID,24.8633,VALID,46,VALID,0,
2010-05-25, 02:03:04,VALID,1008.52,VALID,0,VALID,102.307,VALID,0,VALID,24.8828,VALID,46,VALID,0,
2010-05-25, 02:04:04,VALID,1008.53,VALID,0,VALID,102.322,VALID,0,VALID,24.8828,VALID,46,VALID,0,
2010-05-25, 02:05:04,VALID,1008.53,VALID,0,VALID,102.345,VALID,0,VALID,24.8633,VALID,46,VALID,0,
2010-05-25, 02:06:04,VALID,1008.54,VALID,0,VALID,102.36,VALID,0,VALID,24.8633,VALID,46,VALID,0,
2010-05-25, 02:07:04,VALID,1008.53,VALID,0,VALID,102.376,VALID,0,VALID,24.8633,VALID,46,VALID,0,
2010-05-25, 02:08:04,VALID,1008.53,VALID,0,VALID,102.383,VALID,0,VALID,24.8652,VALID,46,VALID,0,
2010-05-25, 02:09:04,VALID,1008.54,VALID,0,VALID,102.368,VALID,0,VALID,24.8438,VALID,46,VALID,0,
2010-05-25, 02:10:04,VALID,1008.51,VALID,0,VALID,102.383,VALID,0,VALID,24.8438,VALID,46,VALID,0,
2010-05-25, 02:11:04,VALID,1008.51,VALID,0,VALID,102.376,VALID,0,VALID,24.8244,VALID,46,VALID,0,
2010-05-25, 02:12:04,VALID,1008.5,VALID,0,VALID,102.376,VALID,0,VALID,24.8244,VALID,46,VALID,0,
2010-05-25, 02:13:04,VALID,1008.47,VALID,0,VALID,102.353,VALID,0,VALID,24.8049,VALID,52,VALID,0,
2010-05-25, 02:14:04,VALID,1008.49,VALID,0,VALID,102.322,VALID,0,VALID,24.8049,VALID,56,VALID,0,
2010-05-25, 02:15:04,VALID,1008.49,VALID,0,VALID,102.315,VALID,0,VALID,24.8067,VALID,56,VALID,0,
2010-05-25, 02:16:04,VALID,1008.47,VALID,0,VALID,102.307,VALID,0,VALID,24.8067,VALID,56,VALID,0,
2010-05-25, 02:17:04,VALID,1008.48,VALID,0,VALID,102.292,VALID,0,VALID,24.764,VALID,56,VALID,0,
2010-05-25, 02:18:04,VALID,1008.48,VALID,0,VALID,102.277,VALID,0.105969,VALID,24.764,VALID,56,VALID,0,
2010-05-25, 02:19:04,VALID,1008.45,VALID,0,VALID,102.299,VALID,0,VALID,24.7445,VALID,56,VALID,0,
2010-05-25, 02:20:04,VALID,1008.47,VALID,0,VALID,102.284,VALID,0,VALID,24.7445,VALID,56,VALID,0,
2010-05-25, 02:21:04,VALID,1008.41,VALID,0,VALID,102.299,VALID,0.105969,VALID,24.7445,VALID,56,VALID,0,
2010-05-25, 02:22:04,VALID,1008.39,VALID,0,VALID,102.322,VALID,0,VALID,24.7464,VALID,56,VALID,0,
2010-05-25, 02:23:04,VALID,1008.36,VALID,0,VALID,102.338,VALID,0,VALID,24.7055,VALID,56,VALID,0,
2010-05-25, 02:24:04,VALID,1008.34,VALID,0,VALID,102.345,VALID,0,VALID,24.686,VALID,56,VALID,0,
2010-05-25, 02:25:04,VALID,1008.32,VALID,0,VALID,102.368,VALID,0.105969,VALID,24.7074,VALID,56,VALID,0,
2010-05-25, 02:26:04,VALID,1008.32,VALID,0,VALID,102.376,VALID,0,VALID,24.6471,VALID,56,VALID,0,
2010-05-25, 02:27:04,VALID,1008.31,VALID,0,VALID,102.414,VALID,0.105969,VALID,24.6471,VALID,56,VALID,0,
2010-05-25, 02:28:04,VALID,1008.32,VALID,0,VALID,102.414,VALID,0.105969,VALID,24.6276,VALID,56,VALID,0,
2010-05-25, 02:29:04,VALID,1008.29,VALID,0,VALID,102.429,VALID,0.105969,VALID,24.6081,VALID,64,VALID,0,
2010-05-25, 02:30:04,VALID,1008.28,VALID,0,VALID,102.444,VALID,0.105969,VALID,24.5886,VALID,65,VALID,0,
2010-05-25, 02:31:04,VALID,1008.25,VALID,0,VALID,102.452,VALID,0,VALID,24.5886,VALID,65,VALID,0,
2010-05-25, 02:32:04,VALID,1008.22,VALID,0,VALID,102.482,VALID,0.105969,VALID,24.6081,VALID,65,VALID,0,
2010-05-25, 02:33:04,VALID,1008.21,VALID,0,VALID,102.513,VALID,0,VALID,24.5886,VALID,65,VALID,0,
2010-05-25, 02:34:04,VALID,1008.16,VALID,0,VALID,102.498,VALID,0.105969,VALID,24.5886,VALID,67,VALID,0.165625,
2010-05-25, 02:35:04,VALID,1008.15,VALID,0,VALID,102.521,VALID,0.105969,VALID,24.5886,VALID,67,VALID,0,
2010-05-25, 02:36:04,VALID,1008.16,VALID,0,VALID,102.528,VALID,0.105969,VALID,24.6099,VALID,67,VALID,0,
2010-05-25, 02:37:04,VALID,1008.17,VALID,0,VALID,102.536,VALID,0.105969,VALID,24.5691,VALID,67,VALID,0,
2010-05-25, 02:38:04,VALID,1008.15,VALID,0,VALID,102.551,VALID,0.105969,VALID,24.5691,VALID,67,VALID,0,
2010-05-25, 02:39:04,VALID,1008.15,VALID,0,VALID,102.574,VALID,0,VALID,24.5496,VALID,67,VALID,0,
2010-05-25, 02:40:04,VALID,1008.19,VALID,0,VALID,102.574,VALID,0,VALID,24.5301,VALID,67,VALID,0,
2010-05-25, 02:41:04,VALID,1008.15,VALID,0,VALID,102.574,VALID,0,VALID,24.5496,VALID,82,VALID,0.594922,
2010-05-25, 02:42:04,VALID,1008.15,VALID,0,VALID,102.566,VALID,0,VALID,24.571,VALID,81,VALID,0.326953,
2010-05-25, 02:43:04,VALID,1008.15,VALID,0,VALID,102.582,VALID,0,VALID,24.5496,VALID,81,VALID,0.341797,
2010-05-25, 02:44:04,VALID,1008.13,VALID,0,VALID,102.589,VALID,0.105969,VALID,24.5496,VALID,73,VALID,0.323438,
2010-05-25, 02:45:04,VALID,1008.12,VALID,0,VALID,102.589,VALID,0.105969,VALID,24.5515,VALID,73,VALID,0.39375,
2010-05-25, 02:46:04,VALID,1008.09,VALID,0,VALID,102.582,VALID,0.105969,VALID,24.5301,VALID,44,VALID,0.241016,
2010-05-25, 02:47:04,VALID,1008.08,VALID,0,VALID,102.574,VALID,0,VALID,24.5728,VALID,44,VALID,0,
2010-05-25, 02:48:04,VALID,1008.1,VALID,0,VALID,102.582,VALID,0,VALID,24.5533,VALID,44,VALID,0,
2010-05-25, 02:49:04,VALID,1008.07,VALID,0,VALID,102.551,VALID,0,VALID,24.5125,VALID,44,VALID,0,
2010-05-25, 02:50:04,VALID,1008.05,VALID,0,VALID,102.589,VALID,0,VALID,24.532,VALID,44,VALID,0,
2010-05-25, 02:51:04,VALID,1008.08,VALID,0,VALID,102.559,VALID,0,VALID,24.5125,VALID,44,VALID,0,
2010-05-25, 02:52:04,VALID,1008.07,VALID,0,VALID,102.566,VALID,0,VALID,24.5125,VALID,44,VALID,0.336719,
2010-05-25, 02:53:04,VALID,1008.05,VALID,0,VALID,102.566,VALID,0,VALID,24.493,VALID,44,VALID,0,
2010-05-25, 02:54:04,VALID,1008.08,VALID,0,VALID,102.589,VALID,0,VALID,24.4949,VALID,44,VALID,0.0226563,
2010-05-25, 02:55:04,VALID,1008.08,VALID,0,VALID,102.574,VALID,0,VALID,24.493,VALID,71,VALID,0.430078,
2010-05-25, 02:56:04,VALID,1008.07,VALID,0,VALID,102.566,VALID,0,VALID,24.493,VALID,71,VALID,0.352344,
2010-05-25, 02:57:04,VALID,1008.07,VALID,0,VALID,102.589,VALID,0,VALID,24.4735,VALID,66,VALID,0.626172,
2010-05-25, 02:58:04,VALID,1008.09,VALID,0,VALID,102.589,VALID,0,VALID,24.4735,VALID,60,VALID,0.253906,
2010-05-25, 02:59:04,VALID,1008.06,VALID,0,VALID,102.589,VALID,0,VALID,24.4949,VALID,78,VALID,0.642187,
2010-05-25, 03:00:04,VALID,1008.06,VALID,0,VALID,102.582,VALID,0,VALID,24.4735,VALID,73,VALID,0.0632813,
2010-05-25, 03:01:04,VALID,1008.04,VALID,0,VALID,102.574,VALID,0,VALID,24.4949,VALID,73,VALID,0.276953,
2010-05-25, 03:02:04,VALID,1008.02,VALID,0,VALID,102.582,VALID,0,VALID,24.4735,VALID,74,VALID,0.321094,
2010-05-25, 03:03:04,VALID,1008.01,VALID,0,VALID,102.589,VALID,0,VALID,24.4735,VALID,74,VALID,0.2125,
2010-05-25, 03:04:04,VALID,1008.03,VALID,0,VALID,102.589,VALID,0,VALID,24.454,VALID,74,VALID,0,
2010-05-25, 03:05:04,VALID,1008,VALID,0,VALID,102.566,VALID,0,VALID,24.4735,VALID,74,VALID,0.479297,
2010-05-25, 03:06:04,VALID,1007.98,VALID,0,VALID,102.582,VALID,0,VALID,24.4735,VALID,102,VALID,0.726172,
2010-05-25, 03:07:04,VALID,1008,VALID,0,VALID,102.589,VALID,0,VALID,24.4735,VALID,74,VALID,0.468359,
2010-05-25, 03:08:04,VALID,1008.02,VALID,0,VALID,102.589,VALID,0,VALID,24.4735,VALID,86,VALID,0.645703,
2010-05-25, 03:09:04,VALID,1008.01,VALID,0,VALID,102.589,VALID,0,VALID,24.4949,VALID,79,VALID,0.620703,
2010-05-25, 03:10:04,VALID,1008.02,VALID,0,VALID,102.582,VALID,0,VALID,24.4735,VALID,69,VALID,0.483984,
2010-05-25, 03:11:04,VALID,1008.02,VALID,0,VALID,102.589,VALID,0,VALID,24.4949,VALID,72,VALID,0.616016,
2010-05-25, 03:12:04,VALID,1008.03,VALID,0,VALID,102.589,VALID,0,VALID,24.493,VALID,79,VALID,0.309766,
2010-05-25, 03:13:04,VALID,1008.03,VALID,0,VALID,102.582,VALID,0,VALID,24.493,VALID,80,VALID,0.519531,
2010-05-25, 03:14:04,VALID,1008.01,VALID,0,VALID,102.566,VALID,0,VALID,24.493,VALID,80,VALID,0.0078125,
2010-05-25, 03:15:04,VALID,1008,VALID,0,VALID,102.559,VALID,0,VALID,24.5125,VALID,80,VALID,0,
2010-05-25, 03:16:04,VALID,1008.03,VALID,0,VALID,102.566,VALID,0,VALID,24.5338,VALID,80,VALID,0,
2010-05-25, 03:17:04,VALID,1008.01,VALID,0,VALID,102.582,VALID,0.105969,VALID,24.4911,VALID,73,VALID,0,
2010-05-25, 03:18:04,VALID,1008.04,VALID,0,VALID,102.551,VALID,0.105969,VALID,24.5125,VALID,48,VALID,0,
2010-05-25, 03:19:04,VALID,1008.05,VALID,0,VALID,102.566,VALID,0.105969,VALID,24.4911,VALID,48,VALID,0,
2010-05-25, 03:20:04,VALID,1008.08,VALID,0,VALID,102.559,VALID,0.105969,VALID,24.4911,VALID,47,VALID,0,
2010-05-25, 03:21:04,VALID,1008.01,VALID,0,VALID,102.536,VALID,0,VALID,24.5125,VALID,47,VALID,0,
2010-05-25, 03:22:04,VALID,1008.05,VALID,0,VALID,102.528,VALID,0,VALID,24.5125,VALID,47,VALID,0,
2010-05-25, 03:23:04,VALID,1008.03,VALID,0,VALID,102.544,VALID,0.105969,VALID,24.4911,VALID,47,VALID,0,
2010-05-25, 03:24:04,VALID,1008.05,VALID,0,VALID,102.544,VALID,0,VALID,24.4717,VALID,47,VALID,0,
2010-05-25, 03:25:04,VALID,1008.08,VALID,0,VALID,102.551,VALID,0,VALID,24.4735,VALID,47,VALID,0,
2010-05-25, 03:26:04,VALID,1008.09,VALID,0,VALID,102.551,VALID,0,VALID,24.4735,VALID,47,VALID,0,
2010-05-25, 03:27:04,VALID,1008.09,VALID,0,VALID,102.544,VALID,0,VALID,24.4735,VALID,47,VALID,0,
2010-05-25, 03:28:04,VALID,1008.12,VALID,0,VALID,102.566,VALID,0.105969,VALID,24.4522,VALID,47,VALID,0,
2010-05-25, 03:29:04,VALID,1008.12,VALID,0,VALID,102.544,VALID,0,VALID,24.454,VALID,47,VALID,0,
2010-05-25, 03:30:04,VALID,1008.14,VALID,0,VALID,102.566,VALID,0,VALID,24.4327,VALID,47,VALID,0,
2010-05-25, 03:31:04,VALID,1008.15,VALID,0,VALID,102.566,VALID,0,VALID,24.454,VALID,47,VALID,0,
2010-05-25, 03:32:04,VALID,1008.16,VALID,0,VALID,102.582,VALID,0,VALID,24.4327,VALID,47,VALID,0,
2010-05-25, 03:33:04,VALID,1008.15,VALID,0,VALID,102.597,VALID,0.105969,VALID,24.4327,VALID,47,VALID,0,
2010-05-25, 03:34:04,VALID,1008.16,VALID,0,VALID,102.582,VALID,0,VALID,24.4327,VALID,47,VALID,0,
2010-05-25, 03:35:04,VALID,1008.17,VALID,0,VALID,102.566,VALID,0,VALID,24.4345,VALID,47,VALID,0,
2010-05-25, 03:36:04,VALID,1008.16,VALID,0,VALID,102.589,VALID,0,VALID,24.4132,VALID,47,VALID,0,
2010-05-25, 03:37:04,VALID,1008.18,VALID,0,VALID,102.605,VALID,0.105969,VALID,24.4132,VALID,47,VALID,0,
2010-05-25, 03:38:04,VALID,1008.19,VALID,0,VALID,102.589,VALID,0.105969,VALID,24.4132,VALID,47,VALID,0,
2010-05-25, 03:39:04,VALID,1008.18,VALID,0,VALID,102.605,VALID,0,VALID,24.4132,VALID,47,VALID,0,
2010-05-25, 03:40:04,VALID,1008.21,VALID,0,VALID,102.612,VALID,0.105969,VALID,24.4132,VALID,47,VALID,0,
2010-05-25, 03:41:04,VALID,1008.21,VALID,0,VALID,102.605,VALID,0,VALID,24.4345,VALID,47,VALID,0,
2010-05-25, 03:42:04,VALID,1008.19,VALID,0,VALID,102.605,VALID,0.105969,VALID,24.4132,VALID,47,VALID,0,
2010-05-25, 03:43:04,VALID,1008.21,VALID,0,VALID,102.597,VALID,0.105969,VALID,24.4345,VALID,47,VALID,0,
2010-05-25, 03:44:04,VALID,1008.22,VALID,0,VALID,102.612,VALID,0,VALID,24.4345,VALID,47,VALID,0,
2010-05-25, 03:45:04,VALID,1008.24,VALID,0,VALID,102.597,VALID,0.105969,VALID,24.4345,VALID,47,VALID,0,
2010-05-25, 03:46:04,VALID,1008.24,VALID,0,VALID,102.605,VALID,0,VALID,24.4327,VALID,47,VALID,0,
2010-05-25, 03:47:04,VALID,1008.22,VALID,0,VALID,102.627,VALID,0,VALID,24.4132,VALID,47,VALID,0,
2010-05-25, 03:48:04,VALID,1008.23,VALID,0,VALID,102.627,VALID,0,VALID,24.454,VALID,47,VALID,0,
2010-05-25, 03:49:04,VALID,1008.22,VALID,0,VALID,102.62,VALID,0.105969,VALID,24.4327,VALID,47,VALID,0,
2010-05-25, 03:50:04,VALID,1008.22,VALID,0,VALID,102.589,VALID,0.105969,VALID,24.4522,VALID,47,VALID,0,
2010-05-25, 03:51:04,VALID,1008.18,VALID,0,VALID,102.605,VALID,0.105969,VALID,24.4717,VALID,47,VALID,0,
2010-05-25, 03:52:04,VALID,1008.17,VALID,0,VALID,102.627,VALID,0.105969,VALID,24.4717,VALID,47,VALID,0,
2010-05-25, 03:53:04,VALID,1008.17,VALID,0,VALID,102.62,VALID,0,VALID,24.4911,VALID,47,VALID,0,
2010-05-25, 03:54:04,VALID,1008.15,VALID,0,VALID,102.605,VALID,0.105969,VALID,24.5125,VALID,47,VALID,0,
2010-05-25, 03:55:04,VALID,1008.12,VALID,0,VALID,102.62,VALID,0,VALID,24.4911,VALID,47,VALID,0,
2010-05-25, 03:56:04,VALID,1008.16,VALID,0,VALID,102.605,VALID,0,VALID,24.4911,VALID,47,VALID,0,